FDX5024 LFPG-EDDK

Flight info

Callsign FDX5024
Flight time 1h 0m
Altitude 22000
Route RANUX DCT VALEK DCT LUTAX UM163 DIK N853 ARCKY T853 IBESA T860 ERUKI T856 DEPOK DEPOK2V
Aircraft B77L/H-SDE1E2E3FGHIJ2J3J4J5M1RWXY/LB1D1

Departure

Time 2026-04-23 20:17
Airport Charles de Gaulle International Airport (LFPG)

Arrival

Time 2026-04-23 21:17
Airport Cologne Bonn Airport (EDDK)
Time Latitude Longitude Altitude Speed Heading
2026-04-23 19:51 49.01312 2.49875 357 ft 0 kts 175°
2026-04-23 20:05 49.01316 2.49875 366 ft 3 kts 175°
2026-04-23 20:05 49.01343 2.49872 364 ft 4 kts 175°
2026-04-23 20:06 49.01367 2.49869 360 ft 4 kts 174°
2026-04-23 20:06 49.01388 2.49861 365 ft 4 kts 137°
2026-04-23 20:06 49.01397 2.49836 367 ft 4 kts 91°
2026-04-23 20:06 49.01396 2.49797 365 ft 2 kts 85°
2026-04-23 20:07 49.01396 2.49794 365 ft 0 kts 85°
2026-04-23 20:11 49.01423 2.49878 365 ft 13 kts 35°
2026-04-23 20:11 49.01513 2.49888 359 ft 13 kts 355°
2026-04-23 20:11 49.01584 2.49946 364 ft 13 kts 78°
2026-04-23 20:11 49.01592 2.50092 361 ft 14 kts 85°
2026-04-23 20:12 49.01600 2.50244 365 ft 15 kts 85°
2026-04-23 20:12 49.01608 2.50402 361 ft 15 kts 85°
2026-04-23 20:12 49.01617 2.50567 361 ft 16 kts 85°
2026-04-23 20:12 49.01627 2.50737 358 ft 16 kts 85°
2026-04-23 20:13 49.01636 2.50912 361 ft 17 kts 85°
2026-04-23 20:13 49.01646 2.51089 366 ft 17 kts 85°
2026-04-23 20:13 49.01660 2.51232 365 ft 12 kts 62°
2026-04-23 20:13 49.01736 2.51271 365 ft 12 kts 358°
2026-04-23 20:14 49.01816 2.51264 359 ft 9 kts 355°
2026-04-23 20:14 49.01882 2.51257 365 ft 10 kts 356°
2026-04-23 20:14 49.01935 2.51253 362 ft 7 kts
2026-04-23 20:14 49.01981 2.51269 363 ft 7 kts 23°
2026-04-23 20:15 49.02021 2.51321 365 ft 9 kts 46°
2026-04-23 20:15 49.02061 2.51399 366 ft 10 kts 63°
2026-04-23 20:15 49.02074 2.51496 365 ft 0 kts 85°
2026-04-23 20:16 49.02088 2.51740 356 ft 71 kts 85°
2026-04-23 20:16 49.02162 2.52999 394 ft 158 kts 82°
2026-04-23 20:17 49.02249 2.54671 1452 ft 152 kts 83°
2026-04-23 20:17 49.02329 2.56234 2622 ft 147 kts 85°
2026-04-23 20:17 49.02414 2.57844 3326 ft 166 kts 85°
2026-04-23 20:17 49.02516 2.59786 3655 ft 202 kts 85°
2026-04-23 20:18 49.02637 2.62089 4097 ft 230 kts 86°
2026-04-23 20:18 49.02769 2.64592 4912 ft 243 kts 86°
2026-04-23 20:18 49.02907 2.67190 5744 ft 256 kts 86°
2026-04-23 20:18 49.03052 2.69948 6687 ft 266 kts 85°
2026-04-23 20:19 49.03198 2.72787 7718 ft 270 kts 86°
2026-04-23 20:19 49.03339 2.75660 8771 ft 274 kts 86°
2026-04-23 20:19 49.03479 2.78587 9789 ft 280 kts 86°
2026-04-23 20:19 49.03623 2.81580 10717 ft 288 kts 86°
2026-04-23 20:20 49.03774 2.84742 11235 ft 314 kts 86°
2026-04-23 20:20 49.03939 2.88237 11511 ft 348 kts 86°
2026-04-23 20:20 49.04119 2.92035 12123 ft 367 kts 86°
2026-04-23 20:20 49.04337 2.95901 13301 ft 372 kts 85°
2026-04-23 20:21 49.04622 2.99827 14553 ft 375 kts 84°
2026-04-23 20:21 49.04929 3.03813 15639 ft 381 kts 84°
2026-04-23 20:21 49.05241 3.07864 16622 ft 389 kts 84°
2026-04-23 20:21 49.05553 3.11995 17612 ft 396 kts 84°
2026-04-23 20:22 49.05864 3.16197 18622 ft 402 kts 84°
2026-04-23 20:22 49.06174 3.20453 19509 ft 407 kts 85°
2026-04-23 20:22 49.06484 3.24764 20457 ft 410 kts 85°
2026-04-23 20:22 49.06794 3.29108 21389 ft 414 kts 85°
2026-04-23 20:23 49.07106 3.33514 22173 ft 422 kts 85°
2026-04-23 20:23 49.07419 3.37961 22283 ft 425 kts 85°
2026-04-23 20:23 49.07731 3.42413 22297 ft 429 kts 85°
2026-04-23 20:23 49.08048 3.46940 22279 ft 429 kts 85°
2026-04-23 20:24 49.08361 3.51447 22279 ft 428 kts 85°
2026-04-23 20:24 49.08673 3.55971 22284 ft 428 kts 85°
2026-04-23 20:24 49.08982 3.60485 22294 ft 428 kts 85°
2026-04-23 20:24 49.09288 3.64988 22293 ft 428 kts 85°
2026-04-23 20:25 49.09593 3.69502 22275 ft 428 kts 85°
2026-04-23 20:25 49.09897 3.74026 22286 ft 428 kts 85°
2026-04-23 20:25 49.10195 3.78482 22283 ft 428 kts 85°
2026-04-23 20:25 49.10496 3.82998 22293 ft 428 kts 85°
2026-04-23 20:26 49.10795 3.87527 22295 ft 429 kts 85°
2026-04-23 20:26 49.11092 3.92051 22298 ft 429 kts 85°
2026-04-23 20:26 49.11388 3.96576 22280 ft 429 kts 85°
2026-04-23 20:26 49.11682 4.01113 22295 ft 429 kts 85°
2026-04-23 20:27 49.11975 4.05639 22296 ft 429 kts 85°
2026-04-23 20:27 49.12266 4.10180 22298 ft 430 kts 85°
2026-04-23 20:27 49.12555 4.14722 22284 ft 430 kts 85°
2026-04-23 20:27 49.12843 4.19265 22299 ft 430 kts 85°
2026-04-23 20:28 49.13125 4.23743 22295 ft 430 kts 85°
2026-04-23 20:28 49.13410 4.28287 22280 ft 430 kts 85°
2026-04-23 20:28 49.13693 4.32836 22294 ft 430 kts 85°
2026-04-23 20:28 49.13780 4.34199 22295 ft 430 kts 85°
2026-04-23 20:29 49.14097 4.37222 22272 ft 429 kts 76°
2026-04-23 20:29 49.15153 4.41458 22312 ft 430 kts 68°
2026-04-23 20:29 49.16354 4.45670 22293 ft 434 kts 68°
2026-04-23 20:29 49.17555 4.49912 22286 ft 433 kts 68°
2026-04-23 20:30 49.18136 4.51983 22287 ft 433 kts 68°
2026-04-23 20:30 49.19576 4.57185 22283 ft 432 kts 68°
2026-04-23 20:30 49.20729 4.61408 22284 ft 432 kts 69°
2026-04-23 20:31 49.21878 4.65655 22283 ft 431 kts 69°
2026-04-23 20:31 49.23019 4.69897 22289 ft 431 kts 69°
2026-04-23 20:31 49.24158 4.74145 22286 ft 432 kts 69°
2026-04-23 20:31 49.25281 4.78340 22284 ft 432 kts 69°
2026-04-23 20:32 49.26416 4.82590 22284 ft 432 kts 69°
2026-04-23 20:32 49.27552 4.86850 22289 ft 432 kts 69°
2026-04-23 20:32 49.28688 4.91116 22283 ft 433 kts 69°
2026-04-23 20:32 49.29822 4.95382 22290 ft 433 kts 69°
2026-04-23 20:33 49.30956 4.99657 22288 ft 433 kts 69°
2026-04-23 20:33 49.32087 5.03927 22285 ft 433 kts 69°
2026-04-23 20:33 49.33219 5.08208 22288 ft 433 kts 69°
2026-04-23 20:33 49.34348 5.12488 22287 ft 433 kts 69°
2026-04-23 20:34 49.35462 5.16715 22293 ft 433 kts 69°
2026-04-23 20:34 49.36586 5.20992 22288 ft 433 kts 69°
2026-04-23 20:34 49.37712 5.25281 22285 ft 433 kts 69°
2026-04-23 20:34 49.38834 5.29567 22291 ft 433 kts 69°
2026-04-23 20:35 49.39957 5.33862 22295 ft 433 kts 69°
2026-04-23 20:35 49.41075 5.38147 22293 ft 433 kts 69°
2026-04-23 20:35 49.42194 5.42443 22291 ft 433 kts 69°
2026-04-23 20:35 49.43310 5.46734 22292 ft 433 kts 69°
2026-04-23 20:36 49.44423 5.51027 22289 ft 433 kts 69°
2026-04-23 20:36 49.45523 5.55272 22297 ft 433 kts 69°
2026-04-23 20:36 49.46637 5.59581 22292 ft 433 kts 69°
2026-04-23 20:36 49.47747 5.63878 22296 ft 433 kts 69°
2026-04-23 20:37 49.48856 5.68185 22293 ft 433 kts 69°
2026-04-23 20:37 49.49985 5.72469 22292 ft 431 kts 66°
2026-04-23 20:37 49.51529 5.76425 22297 ft 434 kts 53°
2026-04-23 20:37 49.53643 5.79739 22304 ft 437 kts 40°
2026-04-23 20:38 49.56169 5.82359 22317 ft 440 kts 30°
2026-04-23 20:38 49.58013 5.83689 22305 ft 443 kts 22°
2026-04-23 20:38 49.61966 5.85413 22318 ft 443 kts 16°
2026-04-23 20:38 49.64929 5.86546 22313 ft 444 kts 15°
2026-04-23 20:39 49.67928 5.87683 22314 ft 445 kts 15°
2026-04-23 20:39 49.70930 5.88842 22317 ft 445 kts 16°
2026-04-23 20:39 49.73933 5.90028 22312 ft 445 kts 16°
2026-04-23 20:39 49.76936 5.91237 22311 ft 445 kts 16°
2026-04-23 20:40 49.79928 5.92456 22316 ft 445 kts 16°
2026-04-23 20:40 49.82920 5.93685 22314 ft 445 kts 17°
2026-04-23 20:40 49.85910 5.94917 22315 ft 444 kts 17°
2026-04-23 20:40 49.88855 5.96132 22317 ft 444 kts 17°
2026-04-23 20:41 49.91843 5.97365 22316 ft 444 kts 17°
2026-04-23 20:41 49.94863 5.98613 22321 ft 443 kts 17°
2026-04-23 20:41 49.97805 5.99830 22321 ft 443 kts 16°
2026-04-23 20:41 50.00787 6.01064 22321 ft 444 kts 16°
2026-04-23 20:42 50.03764 6.02299 22326 ft 444 kts 16°
2026-04-23 20:42 50.06751 6.03538 22322 ft 444 kts 16°
2026-04-23 20:42 50.09739 6.04780 22320 ft 444 kts 16°
2026-04-23 20:42 50.12716 6.06019 22323 ft 444 kts 16°
2026-04-23 20:43 50.15704 6.07263 22326 ft 444 kts 16°
2026-04-23 20:43 50.18689 6.08508 22324 ft 444 kts 16°
2026-04-23 20:43 50.21677 6.09756 22325 ft 445 kts 16°
2026-04-23 20:43 50.24622 6.10988 22326 ft 445 kts 16°
2026-04-23 20:44 50.27589 6.12343 22325 ft 444 kts 20°
2026-04-23 20:44 50.30443 6.14178 22320 ft 443 kts 26°
2026-04-23 20:44 50.33159 6.16423 22317 ft 442 kts 32°
2026-04-23 20:44 50.35731 6.19048 22328 ft 441 kts 35°
2026-04-23 20:45 50.38269 6.21734 22324 ft 441 kts 35°
2026-04-23 20:45 50.40822 6.24423 22327 ft 441 kts 35°
2026-04-23 20:45 50.43380 6.27080 22322 ft 441 kts 34°
2026-04-23 20:45 50.45933 6.29741 22319 ft 439 kts 36°
2026-04-23 20:46 50.48236 6.32870 22320 ft 438 kts 48°
2026-04-23 20:46 50.50128 6.36613 22332 ft 438 kts 57°
2026-04-23 20:46 50.51581 6.40729 22327 ft 438 kts 67°
2026-04-23 20:46 50.52742 6.45147 22337 ft 438 kts 68°
2026-04-23 20:47 50.53894 6.49586 22333 ft 439 kts 68°
2026-04-23 20:47 50.55067 6.54009 22336 ft 439 kts 68°
2026-04-23 20:47 50.56255 6.58429 22335 ft 439 kts 67°
2026-04-23 20:47 50.57453 6.62858 22333 ft 439 kts 67°
2026-04-23 20:48 50.58642 6.67265 22341 ft 439 kts 67°
2026-04-23 20:48 50.59974 6.71566 22338 ft 437 kts 59°
2026-04-23 20:48 50.61799 6.75399 22346 ft 438 kts 49°
2026-04-23 20:48 50.63961 6.78697 22345 ft 440 kts 40°
2026-04-23 20:49 50.66488 6.81413 22351 ft 441 kts 32°
2026-04-23 20:49 50.69090 6.83964 22349 ft 441 kts 33°
2026-04-23 20:49 50.71667 6.86567 22309 ft 436 kts 33°
2026-04-23 20:49 50.74197 6.89150 22085 ft 427 kts 33°
2026-04-23 20:50 50.76641 6.91645 22068 ft 409 kts 33°
2026-04-23 20:50 50.79016 6.94071 22034 ft 411 kts 33°
2026-04-23 20:50 50.81458 6.96567 22037 ft 423 kts 33°
2026-04-23 20:50 50.83946 6.99115 22033 ft 428 kts 33°
2026-04-23 20:51 50.86445 7.01676 22025 ft 427 kts 33°
2026-04-23 20:51 50.88904 7.04198 22005 ft 426 kts 33°
2026-04-23 20:51 50.91388 7.06746 22022 ft 425 kts 33°
2026-04-23 20:51 50.93865 7.09290 22006 ft 424 kts 33°
2026-04-23 20:52 50.96337 7.11830 22024 ft 424 kts 33°
2026-04-23 20:52 50.98814 7.14376 22019 ft 424 kts 33°
2026-04-23 20:52 51.01293 7.16927 22020 ft 425 kts 33°
2026-04-23 20:52 51.03779 7.19486 22019 ft 426 kts 33°
2026-04-23 20:53 51.06261 7.22043 22023 ft 426 kts 33°
2026-04-23 20:53 51.08746 7.24604 22022 ft 427 kts 33°
2026-04-23 20:53 51.11208 7.27143 22020 ft 426 kts 33°
2026-04-23 20:53 51.13849 7.29141 22013 ft 423 kts 15°
2026-04-23 20:54 51.16774 7.29674 22031 ft 427 kts 359°
2026-04-23 20:54 51.19707 7.28867 22031 ft 432 kts 342°
2026-04-23 20:54 51.22387 7.26693 22028 ft 435 kts 324°
2026-04-23 20:54 51.24536 7.23292 22034 ft 438 kts 306°
2026-04-23 20:55 51.25942 7.18991 22028 ft 439 kts 289°
2026-04-23 20:55 51.26480 7.14208 22032 ft 439 kts 271°
2026-04-23 20:55 51.26103 7.09388 22039 ft 439 kts 253°
2026-04-23 20:55 51.24840 7.04983 22048 ft 438 kts 236°
2026-04-23 20:56 51.22833 7.01437 22045 ft 437 kts 218°
2026-04-23 20:56 51.20259 6.98978 21937 ft 430 kts 201°
2026-04-23 20:56 51.17374 6.97807 21581 ft 427 kts 186°
2026-04-23 20:56 51.14424 6.97915 21182 ft 424 kts 169°
2026-04-23 20:57 51.11555 6.98905 20725 ft 423 kts 166°
2026-04-23 20:57 51.08686 6.99998 20295 ft 424 kts 166°
2026-04-23 20:57 51.05830 7.01092 19723 ft 422 kts 166°
2026-04-23 20:57 51.02986 7.02160 19113 ft 418 kts 166°
2026-04-23 20:58 51.00199 7.03180 18491 ft 415 kts 166°
2026-04-23 20:58 50.97400 7.04185 17799 ft 411 kts 167°
2026-04-23 20:58 50.94626 7.05169 17233 ft 405 kts 167°
2026-04-23 20:58 50.91927 7.06121 17087 ft 389 kts 167°
2026-04-23 20:59 50.90200 7.06728 16971 ft 379 kts 166°
2026-04-23 20:59 50.87670 7.07617 16813 ft 366 kts 166°
2026-04-23 20:59 50.84422 7.08759 16611 ft 349 kts 166°
2026-04-23 20:59 50.82868 7.09305 16523 ft 341 kts 166°
2026-04-23 21:00 50.79870 7.10358 16332 ft 326 kts 166°
2026-04-23 21:00 50.77695 7.11121 16195 ft 315 kts 166°
2026-04-23 21:00 50.75593 7.11856 16067 ft 304 kts 166°
2026-04-23 21:00 50.73617 7.12743 15911 ft 289 kts 152°
2026-04-23 21:01 50.72039 7.14571 15635 ft 277 kts 135°
2026-04-23 21:01 50.71113 7.15946 15448 ft 275 kts 135°
2026-04-23 21:01 50.69254 7.18664 15059 ft 270 kts 135°
2026-04-23 21:01 50.67879 7.20662 14770 ft 267 kts 135°
2026-04-23 21:02 50.66979 7.21966 14588 ft 267 kts 135°
2026-04-23 21:02 50.65120 7.24648 14204 ft 275 kts 135°
2026-04-23 21:02 50.63703 7.26687 13894 ft 278 kts 135°
2026-04-23 21:02 50.62299 7.28705 13558 ft 275 kts 135°
2026-04-23 21:03 50.60896 7.30718 13260 ft 271 kts 135°
2026-04-23 21:03 50.59513 7.32700 12958 ft 267 kts 135°
2026-04-23 21:03 50.58153 7.34649 12674 ft 262 kts 135°
2026-04-23 21:03 50.56815 7.36563 12400 ft 258 kts 135°
2026-04-23 21:04 50.55479 7.38475 12135 ft 262 kts 135°
2026-04-23 21:04 50.54114 7.40426 11863 ft 268 kts 135°
2026-04-23 21:04 50.52748 7.42379 11580 ft 268 kts 135°
2026-04-23 21:04 50.51356 7.44364 11272 ft 265 kts 135°
2026-04-23 21:05 50.50023 7.46263 10994 ft 260 kts 135°
2026-04-23 21:05 50.48694 7.48156 10721 ft 255 kts 135°
2026-04-23 21:05 50.47387 7.50015 10454 ft 253 kts 135°
2026-04-23 21:05 50.46103 7.51936 10204 ft 257 kts 126°
2026-04-23 21:06 50.45380 7.54473 9895 ft 256 kts 94°
2026-04-23 21:06 50.45590 7.57166 9592 ft 247 kts 64°
2026-04-23 21:06 50.46497 7.59367 9318 ft 237 kts 46°
2026-04-23 21:06 50.47576 7.61228 9063 ft 230 kts 45°
2026-04-23 21:07 50.48658 7.63072 8803 ft 230 kts 43°
2026-04-23 21:07 50.50013 7.64384 8529 ft 234 kts 13°
2026-04-23 21:07 50.51626 7.64385 8289 ft 236 kts 345°
2026-04-23 21:07 50.53062 7.63216 8015 ft 232 kts 323°
2026-04-23 21:08 50.54269 7.61560 7743 ft 228 kts 320°
2026-04-23 21:08 50.55419 7.59893 7480 ft 224 kts 320°
2026-04-23 21:08 50.56583 7.58211 7233 ft 231 kts 320°
2026-04-23 21:08 50.57778 7.56491 6988 ft 236 kts 320°
2026-04-23 21:09 50.58978 7.54767 6714 ft 235 kts 320°
2026-04-23 21:09 50.60176 7.53048 6427 ft 231 kts 320°
2026-04-23 21:09 50.61352 7.51361 6142 ft 226 kts 320°
2026-04-23 21:09 50.62507 7.49705 5880 ft 224 kts 320°
2026-04-23 21:10 50.63683 7.48021 5432 ft 231 kts 320°
2026-04-23 21:10 50.64870 7.46319 5089 ft 230 kts 320°
2026-04-23 21:10 50.66047 7.44628 4793 ft 226 kts 320°
2026-04-23 21:10 50.66810 7.43532 4602 ft 223 kts 320°
2026-04-23 21:11 50.68322 7.41361 4264 ft 219 kts 320°
2026-04-23 21:11 50.69442 7.39752 4031 ft 222 kts 320°
2026-04-23 21:11 50.70562 7.38141 3916 ft 213 kts 320°
2026-04-23 21:11 50.71623 7.36612 3796 ft 202 kts 320°
2026-04-23 21:12 50.72646 7.35141 3593 ft 194 kts 320°
2026-04-23 21:12 50.73625 7.33732 3363 ft 188 kts 320°
2026-04-23 21:12 50.74258 7.32820 3205 ft 184 kts 320°
2026-04-23 21:12 50.75162 7.31513 3093 ft 166 kts 321°
2026-04-23 21:13 50.76060 7.30225 2888 ft 176 kts 321°
2026-04-23 21:13 50.76939 7.28958 2627 ft 166 kts 321°
2026-04-23 21:13 50.78010 7.27409 2345 ft 149 kts 321°
2026-04-23 21:13 50.78512 7.26684 2196 ft 141 kts 322°
2026-04-23 21:14 50.79438 7.25349 1984 ft 136 kts 322°
2026-04-23 21:14 50.80134 7.24346 1805 ft 135 kts 321°
2026-04-23 21:14 50.80596 7.23680 1665 ft 136 kts 320°
2026-04-23 21:14 50.81296 7.22669 1477 ft 137 kts 320°
2026-04-23 21:15 50.82007 7.21645 1298 ft 139 kts 319°
2026-04-23 21:15 50.82953 7.20270 1032 ft 139 kts 318°
2026-04-23 21:15 50.83433 7.19570 898 ft 139 kts 319°
2026-04-23 21:15 50.84380 7.18207 648 ft 139 kts 318°
2026-04-23 21:16 50.84853 7.17520 525 ft 140 kts 319°
2026-04-23 21:16 50.85568 7.16493 369 ft 139 kts 319°
2026-04-23 21:16 50.86261 7.15499 297 ft 125 kts 317°
2026-04-23 21:16 50.86825 7.14681 269 ft 93 kts 317°
2026-04-23 21:17 50.87155 7.14201 253 ft 29 kts 317°
2026-04-23 21:17 50.87276 7.13945 247 ft 29 kts 293°
2026-04-23 21:17 50.87315 7.13745 243 ft 9 kts 282°
2026-04-23 21:17 50.87328 7.13627 240 ft 13 kts 278°
2026-04-23 21:18 50.87342 7.13494 237 ft 13 kts 280°
2026-04-23 21:18 50.87346 7.13463 237 ft 9 kts 279°
2026-04-23 21:18 50.87353 7.13389 237 ft 11 kts 279°
2026-04-23 21:18 50.87359 7.13337 237 ft 11 kts 280°
2026-04-23 21:19 50.87383 7.13263 237 ft 12 kts 309°
2026-04-23 21:19 50.87465 7.13139 237 ft 12 kts 317°
2026-04-23 21:19 50.87532 7.13042 237 ft 14 kts 317°
2026-04-23 21:19 50.87575 7.12980 237 ft 4 kts 317°
2026-04-23 21:20 50.87589 7.12941 237 ft 5 kts 277°
2026-04-23 21:20 50.87575 7.12901 237 ft 5 kts 229°
2026-04-23 21:20 50.87554 7.12867 237 ft 3 kts 226°
2026-04-23 21:20 50.87544 7.12850 237 ft 3 kts 227°
2026-04-23 21:21 50.87535 7.12835 237 ft 0 kts 227°